| time (UTC) | temp C | wind direction | speed KPH | gust KPH | rain 1hr cm | rain 24hr cm | rain mn cm | humidity % | barometer mb |
| 20260906022525 | 23 | 21 | 8.0 | 17.7 | 0.00 | 0.00 | 0.00 | 85 | 1013.4 |
| 20260906022024 | 23 | 15 | 9.7 | 17.7 | 0.00 | 0.00 | 0.00 | 84 | 1013.3 |
| 20260906021524 | 23 | 19 | 9.7 | 19.3 | 0.00 | 0.00 | 0.00 | 84 | 1013.3 |
| 20260906021026 | 23 | 27 | 11.3 | 19.3 | 0.00 | 0.00 | 0.00 | 84 | 1013.3 |
| 20260906020524 | 23 | 5 | 8.0 | 19.3 | 0.00 | 0.00 | 0.00 | 84 | 1013.4 |
| 20260906020024 | 23 | 28 | 8.0 | 16.1 | 0.00 | 0.00 | 0.00 | 84 | 1013.3 |
| 20260906015523 | 23 | 338 | 9.7 | 17.7 | 0.00 | 0.00 | 0.00 | 84 | 1013.2 |
| 20260906015022 | 23 | 22 | 6.4 | 17.7 | 0.00 | 0.00 | 0.00 | 84 | 1013.2 |
| 20260906014538 | 23 | 31 | 8.0 | 14.5 | 0.00 | 0.00 | 0.00 | 85 | 1013.1 |
| 20260906014021 | 23 | 36 | 8.0 | 14.5 | 0.00 | 0.00 | 0.00 | 85 | 1013.1 |
| 20260906013526 | 23 | 27 | 4.8 | 14.5 | 0.00 | 0.00 | 0.00 | 85 | 1013.1 |
| 20260906013024 | 23 | 32 | 6.4 | 12.9 | 0.00 | 0.00 | 0.00 | 86 | 1013.0 |
| 20260906012520 | 23 | 23 | 3.2 | 11.3 | 0.00 | 0.00 | 0.00 | 87 | 1013.0 |
| 20260906012019 | 23 | 5 | 4.8 | 9.7 | 0.00 | 0.00 | 0.00 | 87 | 1013.0 |
| 20260906011519 | 23 | 25 | 4.8 | 9.7 | 0.00 | 0.00 | 0.00 | 86 | 1012.9 |
| 20260906011018 | 23 | 28 | 3.2 | 9.7 | 0.00 | 0.00 | 0.00 | 86 | 1012.9 |
| 20260906010524 | 23 | 5 | 3.2 | 9.7 | 0.00 | 0.00 | 0.00 | 86 | 1012.9 |
| 20260906010039 | 23 | 24 | 4.8 | 9.7 | 0.00 | 0.00 | 0.00 | 86 | 1012.9 |
| 20260906005518 | 23 | 17 | 1.6 | 8.0 | 0.00 | 0.00 | 0.00 | 86 | 1012.9 |
| 20260906005021 | 23 | 5 | 0.0 | 8.0 | 0.00 | 0.00 | 0.00 | 86 | 1012.7 |
| 20260906004516 | 23 | 28 | 0.0 | 6.4 | 0.00 | 0.00 | 0.00 | 85 | 1012.6 |
| 20260906004015 | 23 | 34 | 0.0 | 9.7 | 0.00 | 0.00 | 0.00 | 84 | 1012.5 |
| 20260906003515 | 23 | 48 | 4.8 | 12.9 | 0.00 | 0.00 | 0.00 | 84 | 1012.4 |
| 20260906003015 | 24 | 32 | 3.2 | 12.9 | 0.00 | 0.00 | 0.00 | 84 | 1012.3 |
| 20260906002513 | 24 | 19 | 3.2 | 9.7 | 0.00 | 0.00 | 0.00 | 84 | 1012.2 |
| 20260906002013 | 24 | 24 | 1.6 | 6.4 | 0.00 | 0.00 | 0.00 | 84 | 1012.1 |
| 20260906001512 | 24 | 43 | 1.6 | 4.8 | 0.00 | 0.00 | 0.00 | 83 | 1012.1 |
| 20260906001015 | 25 | 47 | 0.0 | 6.4 | 0.00 | 0.00 | 0.00 | 82 | 1012.1 |
| 20260906000513 | 25 | 79 | 0.0 | 8.0 | 0.00 | 0.00 | 0.00 | 82 | 1012.0 |
| 20260906000013 | 25 | 57 | 1.6 | 8.0 | 0.00 | 0.00 | 0.00 | 81 | 1012.0 |
| 20260905235512 | 25 | 45 | 3.2 | 9.7 | 0.00 | 0.00 | 0.00 | 80 | 1012.1 |
| 20260905235015 | 25 | 26 | 4.8 | 11.3 | 0.00 | 0.00 | 0.00 | 80 | 1012.2 |
| 20260905234512 | 25 | 40 | 3.2 | 11.3 | 0.00 | 0.00 | 0.00 | 80 | 1012.2 |
| 20260905234013 | 26 | 24 | 4.8 | 11.3 | 0.00 | 0.00 | 0.00 | 79 | 1012.1 |
| 20260905233512 | 26 | 19 | 4.8 | 14.5 | 0.00 | 0.00 | 0.00 | 79 | 1012.1 |
| 20260905233013 | 26 | 5 | 8.0 | 14.5 | 0.00 | 0.00 | 0.00 | 77 | 1012.0 |
| 20260905232515 | 26 | 26 | 6.4 | 12.9 | 0.00 | 0.00 | 0.00 | 77 | 1012.0 |
| 20260905232010 | 26 | 5 | 8.0 | 12.9 | 0.00 | 0.00 | 0.00 | 77 | 1012.0 |
| 20260905231510 | 26 | 5 | 4.8 | 14.5 | 0.00 | 0.00 | 0.00 | 77 | 1012.0 |
| 20260905231011 | 26 | 20 | 4.8 | 17.7 | 0.00 | 0.00 | 0.00 | 77 | 1011.9 |
| 20260905230508 | 26 | 317 | 8.0 | 20.9 | 0.00 | 0.00 | 0.00 | 76 | 1011.7 |
| 20260905230008 | 27 | 355 | 9.7 | 20.9 | 0.00 | 0.00 | 0.00 | 75 | 1011.6 |
| 20260905225508 | 27 | 5 | 8.0 | 17.7 | 0.00 | 0.00 | 0.00 | 76 | 1011.7 |
| 20260905225008 | 27 | 12 | 9.7 | 22.5 | 0.00 | 0.00 | 0.00 | 75 | 1011.8 |
| 20260905224508 | 27 | 15 | 9.7 | 22.5 | 0.00 | 0.00 | 0.00 | 76 | 1011.7 |
| 20260905224012 | 27 | 355 | 11.3 | 20.9 | 0.00 | 0.00 | 0.00 | 74 | 1011.7 |
| 20260905223507 | 27 | 346 | 12.9 | 20.9 | 0.00 | 0.00 | 0.00 | 74 | 1011.5 |
| 20260905223017 | 27 | 360 | 11.3 | 20.9 | 0.00 | 0.00 | 0.00 | 74 | 1011.4 |
| 20260905222508 | 28 | 13 | 9.7 | 20.9 | 0.00 | 0.00 | 0.00 | 74 | 1011.4 |
| 20260905222007 | 28 | 18 | 12.9 | 20.9 | 0.00 | 0.00 | 0.00 | 73 | 1011.4 |
| 20260905221506 | 28 | 9 | 9.7 | 17.7 | 0.00 | 0.00 | 0.00 | 74 | 1011.4 |
| 20260905221007 | 28 | 355 | 11.3 | 20.9 | 0.00 | 0.00 | 0.00 | 72 | 1011.4 |
| 20260905220506 | 28 | 355 | 11.3 | 20.9 | 0.00 | 0.00 | 0.00 | 73 | 1011.4 |
| 20260905220006 | 28 | 360 | 6.4 | 14.5 | 0.00 | 0.00 | 0.00 | 73 | 1011.4 |
| 20260905215510 | 28 | 12 | 8.0 | 17.7 | 0.00 | 0.00 | 0.00 | 73 | 1011.4 |
| 20260905215008 | 28 | 355 | 9.7 | 19.3 | 0.00 | 0.00 | 0.00 | 72 | 1011.3 |
| 20260905214508 | 28 | 15 | 9.7 | 19.3 | 0.00 | 0.00 | 0.00 | 72 | 1011.2 |
| 20260905214006 | 28 | 343 | 11.3 | 20.9 | 0.00 | 0.00 | 0.00 | 72 | 1011.1 |
| 20260905213505 | 28 | 42 | 9.7 | 20.9 | 0.00 | 0.00 | 0.00 | 73 | 1011.1 |
| 20260905213007 | 29 | 13 | 11.3 | 20.9 | 0.00 | 0.00 | 0.00 | 72 | 1011.1 |
| 20260905212505 | 29 | 23 | 12.9 | 20.9 | 0.00 | 0.00 | 0.00 | 72 | 1011.1 |
| 20260905212006 | 29 | 46 | 8.0 | 19.3 | 0.00 | 0.00 | 0.00 | 72 | 1011.1 |
| 20260905211515 | 29 | 26 | 11.3 | 20.9 | 0.00 | 0.00 | 0.00 | 71 | 1011.0 |
| 20260905211004 | 30 | 20 | 11.3 | 20.9 | 0.00 | 0.00 | 0.00 | 71 | 1011.0 |
| 20260905210504 | 30 | 28 | 4.8 | 22.5 | 0.00 | 0.00 | 0.00 | 73 | 1011.0 |
| 20260905210004 | 30 | 25 | 9.7 | 22.5 | 0.00 | 0.00 | 0.00 | 71 | 1011.0 |
| 20260905205503 | 30 | 5 | 11.3 | 20.9 | 0.00 | 0.00 | 0.00 | 72 | 1011.1 |
| 20260905205003 | 30 | 22 | 8.0 | 19.3 | 0.00 | 0.00 | 0.00 | 71 | 1011.0 |
| 20260905204503 | 30 | 22 | 11.3 | 24.1 | 0.00 | 0.00 | 0.00 | 70 | 1011.1 |
| 20260905204005 | 30 | 350 | 12.9 | 24.1 | 0.00 | 0.00 | 0.00 | 70 | 1011.1 |
| 20260905203502 | 30 | 355 | 12.9 | 20.9 | 0.00 | 0.00 | 0.00 | 69 | 1011.0 |
| 20260905203003 | 30 | 49 | 11.3 | 20.9 | 0.00 | 0.00 | 0.00 | 70 | 1011.0 |
| 20260905202506 | 30 | 40 | 12.9 | 20.9 | 0.00 | 0.00 | 0.00 | 69 | 1011.1 |
| 20260905202001 | 31 | 47 | 11.3 | 20.9 | 0.00 | 0.00 | 0.00 | 69 | 1011.0 |
| 20260905201503 | 31 | 27 | 8.0 | 19.3 | 0.00 | 0.00 | 0.00 | 71 | 1011.1 |
| 20260905201002 | 31 | 5 | 11.3 | 19.3 | 0.00 | 0.00 | 0.00 | 69 | 1011.1 |
| 20260905200502 | 31 | 27 | 8.0 | 19.3 | 0.00 | 0.00 | 0.00 | 69 | 1011.0 |
| 20260905195601 | 31 | 5 | 11.3 | 17.7 | 0.00 | 0.00 | 0.00 | 68 | 1011.1 |
| 20260905195100 | 31 | 5 | 8.0 | 16.1 | 0.00 | 0.00 | 0.00 | 70 | 1011.0 |
| 20260905194600 | 31 | 19 | 6.4 | 17.7 | 0.00 | 0.00 | 0.00 | 70 | 1011.0 |
| 20260905194100 | 31 | 22 | 9.7 | 17.7 | 0.00 | 0.00 | 0.00 | 69 | 1011.0 |
| 20260905193559 | 31 | 323 | 6.4 | 16.1 | 0.00 | 0.00 | 0.00 | 72 | 1010.9 |
| 20260905193059 | 31 | 5 | 4.8 | 19.3 | 0.00 | 0.00 | 0.00 | 71 | 1010.9 |
| 20260905192600 | 31 | 15 | 9.7 | 19.3 | 0.00 | 0.00 | 0.00 | 68 | 1011.0 |
| 20260905192059 | 31 | 29 | 8.0 | 17.7 | 0.00 | 0.00 | 0.00 | 69 | 1011.0 |
| 20260905191558 | 31 | 15 | 8.0 | 17.7 | 0.00 | 0.00 | 0.00 | 69 | 1011.1 |
| 20260905191058 | 31 | 16 | 8.0 | 16.1 | 0.00 | 0.00 | 0.00 | 68 | 1011.1 |
| 20260905190558 | 31 | 355 | 8.0 | 16.1 | 0.00 | 0.00 | 0.00 | 69 | 1011.1 |
| 20260905185557 | 31 | 348 | 4.8 | 14.5 | 0.00 | 0.00 | 0.00 | 69 | 1011.2 |
| 20260905185059 | 31 | 360 | 6.4 | 14.5 | 0.00 | 0.00 | 0.00 | 70 | 1011.4 |
| 20260905184604 | 31 | 26 | 8.0 | 14.5 | 0.00 | 0.00 | 0.00 | 70 | 1011.3 |
| 20260905184058 | 31 | 338 | 6.4 | 12.9 | 0.00 | 0.00 | 0.00 | 72 | 1011.3 |
| 20260905183556 | 31 | 337 | 8.0 | 12.9 | 0.00 | 0.00 | 0.00 | 72 | 1011.5 |
| 20260905183110 | 31 | 355 | 4.8 | 12.9 | 0.00 | 0.00 | 0.00 | 73 | 1011.5 |
| 20260905182556 | 31 | 41 | 6.4 | 14.5 | 0.00 | 0.00 | 0.00 | 72 | 1011.3 |
| 20260905182055 | 31 | 19 | 6.4 | 14.5 | 0.00 | 0.00 | 0.00 | 72 | 1011.4 |
| 20260905181555 | 31 | 35 | 8.0 | 14.5 | 0.00 | 0.00 | 0.00 | 71 | 1011.3 |
| 20260905181054 | 31 | 30 | 6.4 | 14.5 | 0.00 | 0.00 | 0.00 | 73 | 1011.3 |
| 20260905180554 | 31 | 360 | 8.0 | 12.9 | 0.00 | 0.00 | 0.00 | 73 | 1011.3 |
| 20260905180056 | 31 | 33 | 6.4 | 12.9 | 0.00 | 0.00 | 0.00 | 72 | 1011.3 |
| 20260905175554 | 31 | 360 | 6.4 | 16.1 | 0.00 | 0.00 | 0.00 | 74 | 1011.4 |
| 20260905175054 | 31 | 23 | 6.4 | 16.1 | 0.00 | 0.00 | 0.00 | 74 | 1011.3 |
| 20260905174553 | 31 | 335 | 6.4 | 16.1 | 0.00 | 0.00 | 0.00 | 74 | 1011.3 |
| 20260905174057 | 31 | 34 | 8.0 | 16.1 | 0.00 | 0.00 | 0.00 | 75 | 1011.3 |
| 20260905173553 | 31 | 9 | 9.7 | 16.1 | 0.00 | 0.00 | 0.00 | 73 | 1011.3 |
| 20260905173052 | 32 | 42 | 6.4 | 14.5 | 0.00 | 0.00 | 0.00 | 72 | 1011.3 |
| 20260905172555 | 32 | 53 | 3.2 | 12.9 | 0.00 | 0.00 | 0.00 | 72 | 1011.4 |
| 20260905172052 | 32 | 23 | 6.4 | 12.9 | 0.00 | 0.00 | 0.00 | 73 | 1011.4 |
| 20260905171553 | 32 | 35 | 4.8 | 11.3 | 0.00 | 0.00 | 0.00 | 74 | 1011.4 |
| 20260905171050 | 31 | 340 | 6.4 | 12.9 | 0.00 | 0.00 | 0.00 | 74 | 1011.5 |
| 20260905170550 | 32 | 13 | 6.4 | 12.9 | 0.00 | 0.00 | 0.00 | 75 | 1011.5 |
| 20260905165554 | 31 | 355 | 6.4 | 12.9 | 0.00 | 0.00 | 0.00 | 74 | 1011.6 |
| 20260905165049 | 31 | 22 | 6.4 | 14.5 | 0.00 | 0.00 | 0.00 | 77 | 1011.7 |
| 20260905164552 | 31 | 53 | 8.0 | 16.1 | 0.00 | 0.00 | 0.00 | 74 | 1011.8 |
| 20260905164048 | 31 | 5 | 8.0 | 16.1 | 0.00 | 0.00 | 0.00 | 75 | 1011.8 |
| 20260905163549 | 31 | 330 | 8.0 | 16.1 | 0.00 | 0.00 | 0.00 | 75 | 1011.8 |
| 20260905163048 | 31 | 5 | 4.8 | 16.1 | 0.00 | 0.00 | 0.00 | 77 | 1011.7 |
| 20260905162548 | 31 | 355 | 6.4 | 14.5 | 0.00 | 0.00 | 0.00 | 77 | 1011.6 |
| 20260905162046 | 31 | 350 | 6.4 | 14.5 | 0.00 | 0.00 | 0.00 | 76 | 1011.7 |
| 20260905161546 | 31 | 348 | 6.4 | 12.9 | 0.00 | 0.00 | 0.00 | 76 | 1011.6 |
| 20260905161046 | 31 | 360 | 6.4 | 14.5 | 0.00 | 0.00 | 0.00 | 77 | 1011.6 |
| 20260905160545 | 31 | 334 | 8.0 | 14.5 | 0.00 | 0.00 | 0.00 | 76 | 1011.5 |
| 20260905160046 | 31 | 360 | 4.8 | 12.9 | 0.00 | 0.00 | 0.00 | 78 | 1011.4 |
| 20260905155545 | 31 | 15 | 4.8 | 12.9 | 0.00 | 0.00 | 0.00 | 78 | 1011.4 |
| 20260905155043 | 31 | 10 | 4.8 | 9.7 | 0.00 | 0.00 | 0.00 | 79 | 1011.5 |
| 20260905154544 | 31 | 319 | 4.8 | 11.3 | 0.00 | 0.00 | 0.00 | 78 | 1011.6 |
| 20260905154043 | 31 | 5 | 4.8 | 11.3 | 0.00 | 0.00 | 0.00 | 79 | 1011.6 |
| 20260905153541 | 31 | 333 | 3.2 | 11.3 | 0.00 | 0.00 | 0.00 | 79 | 1011.5 |
| 20260905153040 | 30 | 12 | 4.8 | 11.3 | 0.00 | 0.00 | 0.00 | 79 | 1011.4 |
| 20260905152541 | 30 | 296 | 4.8 | 11.3 | 0.00 | 0.00 | 0.00 | 81 | 1011.4 |
| 20260905152040 | 30 | 47 | 1.6 | 11.3 | 0.00 | 0.00 | 0.00 | 82 | 1011.4 |
| 20260905151538 | 30 | 30 | 6.4 | 11.3 | 0.00 | 0.00 | 0.00 | 80 | 1011.2 |
| 20260905151036 | 30 | 36 | 4.8 | 8.0 | 0.00 | 0.00 | 0.00 | 82 | 1011.3 |
| 20260905150537 | 30 | 30 | 4.8 | 9.7 | 0.00 | 0.00 | 0.00 | 81 | 1011.3 |
| 20260905150037 | 30 | 360 | 3.2 | 9.7 | 0.00 | 0.00 | 0.00 | 80 | 1011.3 |
| 20260905145537 | 30 | 355 | 4.8 | 9.7 | 0.00 | 0.00 | 0.00 | 80 | 1011.3 |
| 20260905145036 | 30 | 13 | 4.8 | 9.7 | 0.00 | 0.00 | 0.00 | 80 | 1011.3 |
| 20260905144537 | 30 | 5 | 6.4 | 11.3 | 0.00 | 0.00 | 0.00 | 79 | 1011.2 |
| 20260905144035 | 30 | 335 | 4.8 | 11.3 | 0.00 | 0.00 | 0.00 | 80 | 1011.1 |
| 20260905143540 | 30 | 360 | 3.2 | 9.7 | 0.00 | 0.00 | 0.00 | 81 | 1011.1 |
| 20260905143035 | 30 | 342 | 3.2 | 8.0 | 0.00 | 0.00 | 0.00 | 81 | 1011.1 |
| 20260905142535 | 30 | 355 | 3.2 | 9.7 | 0.00 | 0.00 | 0.00 | 80 | 1011.0 |
| 20260905142033 | 30 | 5 | 4.8 | 9.7 | 0.00 | 0.00 | 0.00 | 81 | 1011.0 |
| 20260905141532 | 30 | 15 | 3.2 | 8.0 | 0.00 | 0.00 | 0.00 | 81 | 1010.9 |
| 20260905141033 | 29 | 336 | 0.0 | 6.4 | 0.00 | 0.00 | 0.00 | 83 | 1011.0 |
| 20260905140530 | 29 | 288 | 1.6 | 6.4 | 0.00 | 0.00 | 0.00 | 83 | 1011.1 |
| 20260905140029 | 28 | 349 | 0.0 | 4.8 | 0.00 | 0.00 | 0.00 | 86 | 1011.1 |
| 20260905135529 | 28 | 288 | 0.0 | 4.8 | 0.00 | 0.00 | 0.00 | 86 | 1011.3 |
| 20260905135027 | 28 | 309 | 0.0 | 4.8 | 0.00 | 0.00 | 0.00 | 86 | 1011.4 |
| 20260905134530 | 28 | 289 | 0.0 | 6.4 | 0.00 | 0.00 | 0.00 | 87 | 1011.6 |
| 20260905134025 | 27 | 269 | 0.0 | 6.4 | 0.00 | 0.00 | 0.00 | 86 | 1011.5 |
| 20260905133523 | 27 | 242 | 1.6 | 6.4 | 0.00 | 0.00 | 0.00 | 87 | 1011.3 |
| 20260905133022 | 27 | 249 | 0.0 | 0.0 | 0.00 | 0.00 | 0.00 | 90 | 1011.2 |
| 20260905132520 | 27 | 249 | 0.0 | 0.0 | 0.00 | 0.00 | 0.00 | 90 | 1011.2 |
| 20260905132019 | 26 | 220 | 0.0 | 0.0 | 0.00 | 0.00 | 0.00 | 92 | 1011.0 |
| 20260905131518 | 26 | 220 | 0.0 | 1.6 | 0.00 | 0.00 | 0.00 | 93 | 1011.0 |
| 20260905131018 | 26 | 211 | 0.0 | 3.2 | 0.00 | 0.00 | 0.00 | 95 | 1011.0 |
| 20260905130515 | 25 | 68 | 0.0 | 3.2 | 0.00 | 0.00 | 0.00 | 96 | 1010.9 |
| 20260905130014 | 25 | 68 | 0.0 | 1.6 | 0.00 | 0.00 | 0.00 | 96 | 1010.8 |
| 20260905125512 | 25 | 68 | 0.0 | 3.2 | 0.00 | 0.00 | 0.00 | 96 | 1010.8 |
| 20260905125013 | 24 | 68 | 0.0 | 3.2 | 0.00 | 0.00 | 0.00 | 96 | 1010.8 |
| 20260905124516 | 23 | 24 | 0.0 | 1.6 | 0.00 | 0.00 | 0.00 | 96 | 1010.8 |
| 20260905124012 | 23 | 24 | 0.0 | 0.0 | 0.00 | 0.00 | 0.00 | 96 | 1010.7 |
| 20260905123512 | 23 | 24 | 0.0 | 0.0 | 0.00 | 0.00 | 0.00 | 96 | 1010.7 |
| 20260905123012 | 23 | 24 | 0.0 | 0.0 | 0.00 | 0.00 | 0.00 | 95 | 1010.7 |
| 20260905122512 | 23 | 24 | 0.0 | 0.0 | 0.00 | 0.00 | 0.00 | 95 | 1010.8 |
| 20260905122012 | 23 | 24 | 0.0 | 0.0 | 0.00 | 0.00 | 0.00 | 96 | 1010.7 |
| 20260905121512 | 23 | 24 | 0.0 | 0.0 | 0.00 | 0.00 | 0.00 | 95 | 1010.7 |
| 20260905121012 | 22 | 24 | 0.0 | 0.0 | 0.00 | 0.00 | 0.00 | 96 | 1010.7 |
| 20260905120512 | 22 | 24 | 0.0 | 0.0 | 0.00 | 0.00 | 0.00 | 95 | 1010.6 |
| 20260905120010 | 22 | 24 | 0.0 | 0.0 | 0.00 | 0.00 | 0.00 | 95 | 1010.6 |
| 20260905115511 | 22 | 24 | 0.0 | 0.0 | 0.00 | 0.00 | 0.00 | 95 | 1010.5 |
| 20260905115011 | 22 | 24 | 0.0 | 0.0 | 0.00 | 0.00 | 0.00 | 95 | 1010.5 |
| 20260905114510 | 22 | 24 | 0.0 | 0.0 | 0.00 | 0.00 | 0.00 | 95 | 1010.4 |
| 20260905114010 | 22 | 24 | 0.0 | 0.0 | 0.00 | 0.00 | 0.00 | 95 | 1010.4 |
| 20260905113510 | 22 | 24 | 0.0 | 0.0 | 0.00 | 0.00 | 0.00 | 95 | 1010.5 |
| 20260905113010 | 22 | 24 | 0.0 | 0.0 | 0.00 | 0.00 | 0.00 | 95 | 1010.6 |
| 20260905112510 | 22 | 24 | 0.0 | 0.0 | 0.00 | 0.00 | 0.00 | 94 | 1010.6 |
| 20260905112008 | 22 | 24 | 0.0 | 0.0 | 0.00 | 0.00 | 0.00 | 94 | 1010.5 |
| 20260905111513 | 22 | 24 | 0.0 | 0.0 | 0.00 | 0.00 | 0.00 | 94 | 1010.4 |
| 20260905111007 | 22 | 24 | 0.0 | 0.0 | 0.00 | 0.00 | 0.00 | 94 | 1010.3 |
| 20260905110507 | 22 | 24 | 0.0 | 0.0 | 0.00 | 0.00 | 0.00 | 94 | 1010.2 |
| 20260905110008 | 22 | 24 | 0.0 | 0.0 | 0.00 | 0.00 | 0.00 | 94 | 1010.2 |
| 20260905105511 | 22 | 24 | 0.0 | 0.0 | 0.00 | 0.00 | 0.00 | 94 | 1010.1 |
| 20260905105006 | 22 | 24 | 0.0 | 0.0 | 0.00 | 0.00 | 0.00 | 94 | 1010.2 |
| 20260905104506 | 22 | 24 | 0.0 | 0.0 | 0.00 | 0.00 | 0.00 | 94 | 1010.2 |
| 20260905104006 | 22 | 24 | 0.0 | 0.0 | 0.00 | 0.00 | 0.00 | 94 | 1010.3 |
| 20260905103506 | 22 | 24 | 0.0 | 0.0 | 0.00 | 0.00 | 0.00 | 94 | 1010.3 |
| 20260905103006 | 22 | 24 | 0.0 | 0.0 | 0.00 | 0.00 | 0.00 | 94 | 1010.3 |
| 20260905102505 | 22 | 24 | 0.0 | 0.0 | 0.00 | 0.00 | 0.00 | 94 | 1010.3 |
| 20260905102004 | 22 | 24 | 0.0 | 1.6 | 0.00 | 0.00 | 0.00 | 94 | 1010.4 |
| 20260905101505 | 22 | 24 | 0.0 | 1.6 | 0.00 | 0.00 | 0.00 | 94 | 1010.5 |
| 20260905101005 | 22 | 24 | 0.0 | 0.0 | 0.00 | 0.00 | 0.00 | 94 | 1010.4 |
| 20260905100504 | 22 | 24 | 0.0 | 0.0 | 0.00 | 0.00 | 0.00 | 94 | 1010.4 |
| 20260905100006 | 22 | 24 | 0.0 | 4.8 | 0.00 | 0.00 | 0.00 | 94 | 1010.4 |
| 20260905095504 | 22 | 24 | 0.0 | 4.8 | 0.00 | 0.00 | 0.00 | 94 | 1010.4 |
| 20260905095003 | 22 | 5 | 0.0 | 4.8 | 0.00 | 0.00 | 0.00 | 94 | 1010.3 |
| 20260905094503 | 22 | 277 | 0.0 | 0.0 | 0.00 | 0.00 | 0.00 | 93 | 1010.1 |
| 20260905094002 | 22 | 277 | 0.0 | 0.0 | 0.00 | 0.00 | 0.00 | 93 | 1010.1 |
| 20260905093502 | 22 | 277 | 0.0 | 0.0 | 0.00 | 0.00 | 0.00 | 93 | 1010.1 |
| 20260905093001 | 22 | 277 | 0.0 | 0.0 | 0.00 | 0.00 | 0.00 | 93 | 1010.1 |
| 20260905092501 | 23 | 277 | 0.0 | 0.0 | 0.00 | 0.00 | 0.00 | 94 | 1010.1 |
| 20260905092100 | 23 | 277 | 0.0 | 0.0 | 0.00 | 0.00 | 0.00 | 93 | 1010.2 |
| 20260905091601 | 23 | 277 | 0.0 | 0.0 | 0.00 | 0.00 | 0.00 | 93 | 1010.2 |
| 20260905091102 | 23 | 277 | 0.0 | 0.0 | 0.00 | 0.00 | 0.00 | 94 | 1010.1 |
| 20260905090559 | 23 | 277 | 0.0 | 1.6 | 0.00 | 0.00 | 0.00 | 94 | 1010.2 |
| 20260905090132 | 23 | 277 | 0.0 | 1.6 | 0.00 | 0.00 | 0.00 | 94 | 1010.2 |
| 20260905085600 | 23 | 277 | 0.0 | 1.6 | 0.00 | 0.00 | 0.00 | 94 | 1010.2 |
| 20260905085100 | 23 | 277 | 0.0 | 1.6 | 0.00 | 0.00 | 0.00 | 94 | 1010.3 |
| 20260905084612 | 23 | 277 | 0.0 | 3.2 | 0.00 | 0.00 | 0.00 | 94 | 1010.2 |
| 20260905084059 | 23 | 277 | 1.6 | 3.2 | 0.00 | 0.00 | 0.00 | 94 | 1010.2 |
| 20260905083559 | 23 | 277 | 0.0 | 3.2 | 0.00 | 0.00 | 0.00 | 94 | 1010.2 |
| 20260905083059 | 23 | 277 | 0.0 | 0.0 | 0.00 | 0.00 | 0.00 | 94 | 1010.1 |
| 20260905082558 | 23 | 277 | 0.0 | 0.0 | 0.00 | 0.00 | 0.00 | 93 | 1010.1 |
| 20260905082057 | 23 | 277 | 0.0 | 0.0 | 0.00 | 0.00 | 0.00 | 93 | 1010.1 |
| 20260905081557 | 23 | 277 | 0.0 | 0.0 | 0.00 | 0.00 | 0.00 | 93 | 1010.1 |
| 20260905081056 | 23 | 277 | 0.0 | 0.0 | 0.00 | 0.00 | 0.00 | 94 | 1010.1 |
| 20260905080558 | 23 | 277 | 0.0 | 0.0 | 0.00 | 0.00 | 0.00 | 94 | 1010.1 |
| 20260905080100 | 23 | 277 | 0.0 | 0.0 | 0.00 | 0.00 | 0.00 | 94 | 1010.2 |
| 20260905075557 | 23 | 277 | 0.0 | 0.0 | 0.00 | 0.00 | 0.00 | 93 | 1010.1 |
| 20260905075056 | 23 | 277 | 0.0 | 1.6 | 0.00 | 0.00 | 0.00 | 93 | 1010.1 |
| 20260905074556 | 23 | 277 | 0.0 | 1.6 | 0.00 | 0.00 | 0.00 | 93 | 1010.1 |
| 20260905074055 | 23 | 277 | 0.0 | 0.0 | 0.00 | 0.00 | 0.00 | 92 | 1010.2 |
| 20260905073555 | 23 | 277 | 0.0 | 0.0 | 0.00 | 0.00 | 0.00 | 92 | 1010.1 |
| 20260905073054 | 23 | 277 | 0.0 | 0.0 | 0.00 | 0.00 | 0.00 | 92 | 1010.1 |
| 20260905072553 | 23 | 277 | 0.0 | 0.0 | 0.00 | 0.00 | 0.00 | 92 | 1010.2 |
| 20260905072052 | 23 | 277 | 0.0 | 0.0 | 0.00 | 0.00 | 0.00 | 92 | 1010.3 |
| 20260905071551 | 23 | 277 | 0.0 | 0.0 | 0.00 | 0.00 | 0.00 | 92 | 1010.3 |
| 20260905071052 | 23 | 277 | 0.0 | 0.0 | 0.00 | 0.00 | 0.00 | 92 | 1010.2 |
| 20260905070553 | 24 | 277 | 0.0 | 0.0 | 0.00 | 0.00 | 0.00 | 92 | 1010.3 |
| 20260905070050 | 24 | 277 | 0.0 | 0.0 | 0.00 | 0.00 | 0.00 | 92 | 1010.3 |
| 20260905065549 | 24 | 277 | 0.0 | 0.0 | 0.00 | 0.00 | 0.00 | 92 | 1010.3 |
| 20260905065049 | 24 | 277 | 0.0 | 0.0 | 0.00 | 0.00 | 0.00 | 92 | 1010.2 |
| 20260905064549 | 24 | 277 | 0.0 | 0.0 | 0.00 | 0.00 | 0.00 | 92 | 1010.3 |
| 20260905064052 | 24 | 277 | 0.0 | 0.0 | 0.00 | 0.00 | 0.00 | 92 | 1010.3 |
| 20260905063548 | 24 | 277 | 0.0 | 0.0 | 0.00 | 0.00 | 0.00 | 93 | 1010.3 |
| 20260905063048 | 24 | 277 | 0.0 | 0.0 | 0.00 | 0.00 | 0.00 | 93 | 1010.4 |
| 20260905062548 | 24 | 277 | 0.0 | 1.6 | 0.00 | 0.00 | 0.00 | 93 | 1010.5 |
| 20260905062047 | 24 | 277 | 0.0 | 1.6 | 0.00 | 0.00 | 0.00 | 92 | 1010.5 |
| 20260905061549 | 24 | 277 | 0.0 | 1.6 | 0.00 | 0.00 | 0.00 | 92 | 1010.4 |
| 20260905061045 | 24 | 277 | 0.0 | 0.0 | 0.00 | 0.00 | 0.00 | 92 | 1010.4 |
| 20260905060544 | 25 | 277 | 0.0 | 0.0 | 0.00 | 0.00 | 0.00 | 92 | 1010.6 |
| 20260905060046 | 25 | 277 | 0.0 | 0.0 | 0.00 | 0.00 | 0.00 | 92 | 1010.6 |
| 20260905055543 | 25 | 277 | 0.0 | 0.0 | 0.00 | 0.00 | 0.00 | 92 | 1010.6 |
| 20260905055043 | 25 | 277 | 0.0 | 0.0 | 0.00 | 0.00 | 0.00 | 92 | 1010.6 |
| 20260905054543 | 25 | 277 | 0.0 | 0.0 | 0.00 | 0.00 | 0.00 | 92 | 1010.6 |
| 20260905054042 | 25 | 277 | 0.0 | 0.0 | 0.00 | 0.00 | 0.00 | 92 | 1010.6 |
| 20260905053542 | 25 | 277 | 0.0 | 0.0 | 0.00 | 0.00 | 0.00 | 92 | 1010.6 |
| 20260905053043 | 25 | 277 | 0.0 | 0.0 | 0.00 | 0.00 | 0.00 | 92 | 1010.6 |
| 20260905052540 | 25 | 277 | 0.0 | 0.0 | 0.00 | 0.00 | 0.00 | 92 | 1010.7 |
| 20260905052042 | 25 | 277 | 0.0 | 0.0 | 0.00 | 0.00 | 0.00 | 93 | 1010.8 |
| 20260905051538 | 25 | 277 | 0.0 | 0.0 | 0.00 | 0.00 | 0.00 | 93 | 1010.8 |
| 20260905051039 | 25 | 277 | 0.0 | 0.0 | 0.00 | 0.00 | 0.00 | 93 | 1010.8 |
| 20260905050538 | 25 | 277 | 0.0 | 0.0 | 0.00 | 0.00 | 0.00 | 94 | 1010.8 |
| 20260905050037 | 25 | 277 | 0.0 | 0.0 | 0.00 | 0.00 | 0.00 | 94 | 1010.8 |
| 20260905045536 | 25 | 277 | 0.0 | 0.0 | 0.00 | 0.00 | 0.00 | 93 | 1010.8 |
| 20260905045040 | 25 | 277 | 0.0 | 1.6 | 0.00 | 0.00 | 0.00 | 93 | 1010.9 |
| 20260905044537 | 25 | 277 | 0.0 | 3.2 | 0.00 | 0.00 | 0.00 | 94 | 1010.8 |
| 20260905044036 | 25 | 277 | 0.0 | 3.2 | 0.00 | 0.00 | 0.00 | 93 | 1010.9 |
| 20260905043536 | 25 | 277 | 0.0 | 0.0 | 0.00 | 0.00 | 0.00 | 94 | 1010.9 |
| 20260905043036 | 24 | 277 | 0.0 | 0.0 | 0.00 | 0.00 | 0.00 | 93 | 1010.9 |
| 20260905042535 | 24 | 277 | 0.0 | 0.0 | 0.00 | 0.00 | 0.00 | 93 | 1011.0 |
| 20260905042035 | 24 | 277 | 0.0 | 0.0 | 0.00 | 0.00 | 0.00 | 93 | 1011.0 |
| 20260905041547 | 24 | 277 | 0.0 | 0.0 | 0.00 | 0.00 | 0.00 | 93 | 1011.0 |
| 20260905041035 | 24 | 277 | 0.0 | 0.0 | 0.00 | 0.00 | 0.00 | 93 | 1011.0 |
| 20260905040535 | 24 | 277 | 0.0 | 0.0 | 0.00 | 0.00 | 0.00 | 93 | 1010.9 |
| 20260905040035 | 24 | 277 | 0.0 | 0.0 | 0.00 | 0.00 | 0.00 | 93 | 1011.0 |
| 20260905035534 | 24 | 277 | 0.0 | 0.0 | 0.00 | 0.00 | 0.00 | 93 | 1011.0 |
| 20260905035034 | 24 | 277 | 0.0 | 0.0 | 0.00 | 0.00 | 0.00 | 93 | 1011.0 |
| 20260905034539 | 24 | 277 | 0.0 | 0.0 | 0.00 | 0.00 | 0.00 | 93 | 1011.0 |
| 20260905034034 | 25 | 277 | 0.0 | 0.0 | 0.00 | 0.00 | 0.00 | 93 | 1011.0 |
| 20260905033535 | 25 | 277 | 0.0 | 0.0 | 0.00 | 0.00 | 0.00 | 93 | 1011.1 |
| 20260905033034 | 25 | 277 | 0.0 | 0.0 | 0.00 | 0.00 | 0.00 | 93 | 1011.2 |
| 20260905032534 | 24 | 277 | 0.0 | 0.0 | 0.00 | 0.00 | 0.00 | 92 | 1011.2 |
| 20260905032134 | 25 | 277 | 0.0 | 0.0 | 0.00 | 0.00 | 0.00 | 92 | 1011.1 |
| 20260905031535 | 25 | 277 | 0.0 | 0.0 | 0.00 | 0.00 | 0.00 | 92 | 1011.1 |
| 20260905031033 | 25 | 277 | 0.0 | 0.0 | 0.00 | 0.00 | 0.00 | 92 | 1011.0 |
| 20260905030533 | 25 | 277 | 0.0 | 0.0 | 0.00 | 0.00 | 0.00 | 92 | 1011.1 |
| 20260905030033 | 25 | 277 | 0.0 | 0.0 | 0.00 | 0.00 | 0.00 | 92 | 1011.1 |
| 20260905025535 | 25 | 277 | 0.0 | 0.0 | 0.00 | 0.00 | 0.00 | 92 | 1011.0 |
| 20260905025034 | 25 | 277 | 0.0 | 0.0 | 0.00 | 0.00 | 0.00 | 91 | 1011.0 |
| 20260905024533 | 25 | 277 | 0.0 | 0.0 | 0.00 | 0.00 | 0.00 | 92 | 1011.0 |
| 20260905024032 | 25 | 277 | 0.0 | 0.0 | 0.00 | 0.00 | 0.00 | 91 | 1010.9 |
| 20260905023532 | 25 | 277 | 0.0 | 0.0 | 0.00 | 0.00 | 0.00 | 91 | 1010.8 |
| 20260905023033 | 25 | 277 | 0.0 | 0.0 | 0.00 | 0.00 | 0.00 | 91 | 1010.7 |